Current Weather Conditions: station ENSL

sailwx.info

See reports from other nearby stations

no recent reports received from weather station ID ENSL

Tides Pressure Air temp Water temp Dewpoint Dewpoint depression Visibility Wind speed Wind direction Waves Ship positions
date/time (UTC)wind fromknots sea level pressurealtimeterstation pressurevisibilityair tempwater tempwave heightnotes
2018-Jan-21 19:50 150 34 5.4 5.0
2018-Jan-21 19:20 150 31 5.4 5.0
2018-Jan-21 18:50 160 31 5.4 5.0
2018-Jan-21 18:20 150 28 5.4 5.0
2018-Jan-21 17:50 160 28 5.4 5.0
2018-Jan-21 17:20 160 26 5.4 5.0
2018-Jan-21 16:50 160 27 5.4 5.0
2018-Jan-21 16:20 150 25 5.4 5.0 Showers in the vicinity.
2018-Jan-21 15:50 150 26 5.4 4.0 Rain showers.
2018-Jan-21 15:20 160 22 5.4 5.0 Showers in the vicinity.
2018-Jan-21 14:50 170 20 5.4 5.0
2018-Jan-21 14:20 170 19 5.4 5.0
2018-Jan-21 13:50 160 17 5.4 5.0
2018-Jan-21 13:20 170 14 gusting 25 5.4 5.0
2018-Jan-21 12:50 170 17 5.4 5.0
2018-Jan-21 12:20 150 13 5.4 5.0
2018-Jan-21 11:50 150 7 5.4 5.0
2018-Jan-21 11:20 140 11 5.4 5.0
2018-Jan-21 10:50 140 8 5.4 5.0
2018-Jan-21 10:20 140 7 5.4 5.0
2018-Jan-21 09:50 130 7 5.4 5.0
2018-Jan-21 09:20 120 6 5.4 5.0
2018-Jan-21 08:50 110 5 5.4 5.0
2018-Jan-21 08:20 110 6 5.4 4.0
2018-Jan-21 07:50 090 6 5.4 4.0
2018-Jan-21 07:20 090 7 5.4 4.0
2018-Jan-21 06:50 040 6 5.4 5.0
2018-Jan-21 06:20 020 6 5.4 5.0
2018-Jan-21 05:50 020 8 5.4 5.0
2018-Jan-21 05:20 020 8 5.4 5.0
2018-Jan-21 04:50 020 6 5.4 5.0
2018-Jan-21 04:20 020 7 5.4 5.0
2018-Jan-21 03:50 020 8 5.4 5.0
2018-Jan-21 03:20 020 6 5.4 5.0
2018-Jan-21 02:50 020 6 5.4 5.0
2018-Jan-21 02:20 020 6 5.4 5.0
2018-Jan-21 01:50 020 6 5.4 5.0
2018-Jan-21 01:20 020 7 5.4 5.0
2018-Jan-21 00:50 020 7 5.4 5.0
2018-Jan-21 00:20 020 7 5.4 4.0
2018-Jan-20 23:50 010 6 5.4 4.0
2018-Jan-20 23:20 040 7 5.4 4.0
2018-Jan-20 22:50 060 13 5.4 4.0
2018-Jan-20 22:20 070 13 5.4 4.0
2018-Jan-20 21:50 020 7 5.4 4.0
2018-Jan-20 21:20 030 7 5.4 4.0
2018-Jan-20 20:50 050 13 5.4 3.0
2018-Jan-20 20:20 010 11 5.4 4.0
2018-Jan-20 19:50 360 12 5.4 4.0
2018-Jan-20 19:20 360 11 5.4 4.0
2018-Jan-20 18:50 5.4 3.0
2018-Jan-20 18:20 020 7 5.4 3.0
2018-Jan-20 17:50 020 12 5.4 3.0 Small hail/snow pellets. Snow.
2018-Jan-20 17:20 300 12 5.4 3.0
2018-Jan-20 16:50 310 8 5.4 4.0 Showers in the vicinity.
2018-Jan-20 16:20 310 8 5.4 4.0 Showers in the vicinity.
2018-Jan-20 15:50 300 9 5.4 4.0 Showers in the vicinity.
2018-Jan-20 14:50 310 9 5.4 4.0 Showers in the vicinity.
2018-Jan-20 14:20 320 7 5.4 3.0 Showers in the vicinity.
2018-Jan-20 13:50 320 13 5.4 4.0 Showers in the vicinity.
2018-Jan-20 13:20 260 9 5.4 3.0 Showers in the vicinity.
2018-Jan-20 12:50 240 12 5.4 3.0 Showers in the vicinity.
2018-Jan-20 12:20 250 12 5.4 3.0 Showers in the vicinity.
2018-Jan-20 11:20 260 7 5.4 4.0 Showers in the vicinity.
2018-Jan-20 10:50 280 6 5.4 4.0 Light small hail/snow pellets. Snow.
2018-Jan-20 10:20 260 6 5.4 3.0 Showers in the vicinity.
2018-Jan-20 09:50 270 6 5.4 3.0 Showers in the vicinity.
2018-Jan-20 09:20 280 5 5.4 3.0 Showers in the vicinity.
2018-Jan-20 08:50 290 6 5.4 3.0 Showers in the vicinity.
2018-Jan-20 08:20 260 6 5.4 3.0 Showers in the vicinity.
2018-Jan-20 07:50 250 7 4.3 3.0 Light small hail/snow pellets. Snow.
2018-Jan-20 07:20 280 6 2.7 4.0 Small hail/snow pellets. Drizzle snow.
2018-Jan-20 06:50 290 5 5.4 4.0
2018-Jan-20 06:20 290 8 5.4 4.0
2018-Jan-20 05:50 240 7 5.4 4.0
2018-Jan-20 05:20 250 6 5.4 4.0
2018-Jan-20 04:50 270 6 5.4 3.0
2018-Jan-20 04:20 270 9 5.4 3.0
2018-Jan-20 03:50 270 20 5.4 3.0
2018-Jan-20 03:20 240 13 5.4 4.0
2018-Jan-20 02:50 260 12 5.4 4.0
2018-Jan-20 02:20 260 13 5.4 4.0
2018-Jan-20 01:50 250 13 5.4 4.0
2018-Jan-20 01:20 260 14 5.4 4.0
2018-Jan-20 00:50 260 11 5.4 4.0
2018-Jan-20 00:20 280 14 5.4 4.0
2018-Jan-19 23:50 250 8 5.4 5.0
2018-Jan-19 23:20 220 11 5.4 4.0
2018-Jan-19 22:50 250 11 5.4 4.0
2018-Jan-19 22:20 250 12 5.4 4.0
2018-Jan-19 21:50 270 13 5.4 4.0
2018-Jan-19 21:20 290 14 5.4 4.0
2018-Jan-19 20:50 270 11 5.4 4.0
2018-Jan-19 20:20 250 6 5.4 3.0